Retour au catalogue

STARLINK-36304

ActifCommunicationsVLEO
NORAD 68550·PAYLOAD·🇺🇸 United States

Lancé Apr 2, 2026 depuis Cape Canaveral Space Force Station

Loading…

Prochains Passages (prochaines 24 heures)

TLE

FraisSource: CelesTrak SupGP

Époque: Sep 14, 2026, 21:21 UTC

1 68550C 26070J   26257.89006944  .00016133  00000+0  47624-3 0  2577
2 68550  53.1576 199.9996 0001318  96.4191 325.1482 15.34409495    18

Suivez STARLINK-36304 en temps réel avec AllMySat

Download on the App Store